Time,TemperatureF,DewpointF,PressureIn,WindDirection,WindDirectionDegrees,WindSpeedMPH,WindSpeedGustMPH,Humidity,HourlyPrecipIn,Conditions,Clouds,dailyrainin,SolarRadiationWatts/m^2,SoftwareType,DateUTC
2015-06-30 00:01:00,70.3,64.9,29.82,WNW,282,0.0,0.0,83,0.00,,,0.00,0.00,VWS V14.00,2015-06-30 05:01:00,
2015-06-30 00:06:00,70.2,64.8,29.81,WNW,282,0.0,1.0,83,0.00,,,0.00,0.00,VWS V14.00,2015-06-30 05:06:00,
2015-06-30 00:11:00,70.0,64.9,29.81,WNW,282,0.0,0.0,84,0.00,,,0.00,0.00,VWS V14.00,2015-06-30 05:11:00,
2015-06-30 00:16:00,69.9,64.8,29.81,West,278,0.0,1.0,84,0.00,,,0.00,0.00,VWS V14.00,2015-06-30 05:16:00,
2015-06-30 00:21:00,69.7,64.7,29.81,West,278,0.0,0.0,84,0.00,,,0.00,0.00,VWS V14.00,2015-06-30 05:21:00,
2015-06-30 00:26:00,69.6,64.6,29.81,West,278,0.0,0.0,84,0.00,,,0.00,0.00,VWS V14.00,2015-06-30 05:26:00,
2015-06-30 00:31:00,69.4,64.7,29.82,West,267,0.0,4.0,85,0.00,,,0.00,0.00,VWS V14.00,2015-06-30 05:31:00,
2015-06-30 00:36:00,69.3,64.6,29.82,West,267,0.0,1.0,85,0.00,,,0.00,0.00,VWS V14.00,2015-06-30 05:36:00,
2015-06-30 00:41:00,69.3,64.9,29.82,West,269,0.0,1.0,86,0.00,,,0.00,0.00,VWS V14.00,2015-06-30 05:41:00,
2015-06-30 00:46:00,69.2,64.8,29.82,West,279,0.0,1.0,86,0.00,,,0.00,0.00,VWS V14.00,2015-06-30 05:46:00,
2015-06-30 00:51:00,69.1,64.7,29.82,West,281,0.0,1.0,86,0.00,,,0.00,0.00,VWS V14.00,2015-06-30 05:51:00,
2015-06-30 00:56:00,69.0,64.6,29.82,West,281,0.0,1.0,86,0.00,,,0.00,0.00,VWS V14.00,2015-06-30 05:56:00,
2015-06-30 01:01:00,68.8,64.8,29.82,West,275,0.0,2.0,87,0.00,,,0.00,0.00,VWS V14.00,2015-06-30 06:01:00,
2015-06-30 01:06:00,68.7,64.7,29.81,WNW,283,0.0,5.0,87,0.00,,,0.00,0.00,VWS V14.00,2015-06-30 06:06:00,
2015-06-30 01:11:00,68.6,64.6,29.81,West,279,0.0,0.0,87,0.00,,,0.00,0.00,VWS V14.00,2015-06-30 06:11:00,
2015-06-30 01:16:00,68.5,64.5,29.81,West,279,0.0,0.0,87,0.00,,,0.00,0.00,VWS V14.00,2015-06-30 06:16:00,
2015-06-30 01:21:00,68.4,64.4,29.81,NW,314,0.0,3.0,87,0.00,,,0.00,0.00,VWS V14.00,2015-06-30 06:21:00,
2015-06-30 01:26:00,68.2,64.5,29.81,West,275,0.0,3.0,88,0.00,,,0.00,0.00,VWS V14.00,2015-06-30 06:26:00,
2015-06-30 01:31:00,68.1,64.4,29.81,West,275,0.0,1.0,88,0.00,,,0.00,0.00,VWS V14.00,2015-06-30 06:31:00,
2015-06-30 01:36:00,68.0,64.6,29.81,West,275,0.0,1.0,89,0.00,,,0.00,0.00,VWS V14.00,2015-06-30 06:36:00,
2015-06-30 01:41:00,67.9,64.2,29.81,West,270,0.0,1.0,88,0.00,,,0.00,0.00,VWS V14.00,2015-06-30 06:41:00,
2015-06-30 01:46:00,67.8,64.1,29.81,West,273,0.0,0.0,88,0.00,,,0.00,0.00,VWS V14.00,2015-06-30 06:46:00,
2015-06-30 01:51:00,67.7,64.3,29.81,West,273,0.0,1.0,89,0.00,,,0.00,0.00,VWS V14.00,2015-06-30 06:51:00,
2015-06-30 01:56:00,67.7,64.3,29.81,West,273,0.0,1.0,89,0.00,,,0.00,0.00,VWS V14.00,2015-06-30 06:56:00,
2015-06-30 02:01:00,67.7,64.3,29.81,West,273,0.0,0.0,89,0.00,,,0.00,0.00,VWS V14.00,2015-06-30 07:01:00,
2015-06-30 02:06:00,67.7,64.3,29.81,West,273,0.0,1.0,89,0.00,,,0.00,0.00,VWS V14.00,2015-06-30 07:06:00,
2015-06-30 02:11:00,67.6,64.2,29.81,West,273,0.0,0.0,89,0.00,,,0.00,0.00,VWS V14.00,2015-06-30 07:11:00,
2015-06-30 02:16:00,67.5,64.2,29.81,West,281,0.0,1.0,89,0.00,,,0.00,0.00,VWS V14.00,2015-06-30 07:16:00,
2015-06-30 02:21:00,67.4,64.1,29.80,West,281,0.0,0.0,89,0.00,,,0.00,0.00,VWS V14.00,2015-06-30 07:21:00,
2015-06-30 02:26:00,67.3,64.0,29.80,West,281,0.0,0.0,89,0.00,,,0.00,0.00,VWS V14.00,2015-06-30 07:26:00,
2015-06-30 02:31:00,67.2,63.8,29.80,West,281,0.0,1.0,89,0.00,,,0.00,0.00,VWS V14.00,2015-06-30 07:31:00,
2015-06-30 02:36:00,67.1,63.8,29.80,West,281,0.0,1.0,89,0.00,,,0.00,0.00,VWS V14.00,2015-06-30 07:36:00,
2015-06-30 02:41:00,66.9,63.9,29.81,West,281,0.0,1.0,90,0.00,,,0.00,0.00,VWS V14.00,2015-06-30 07:41:00,
2015-06-30 02:46:00,66.8,63.8,29.81,West,281,0.0,0.0,90,0.00,,,0.00,0.00,VWS V14.00,2015-06-30 07:46:00,
2015-06-30 02:51:00,66.7,63.7,29.80,West,281,0.0,1.0,90,0.00,,,0.00,0.00,VWS V14.00,2015-06-30 07:51:00,
2015-06-30 02:56:00,66.7,63.7,29.81,WNW,288,0.0,1.0,90,0.00,,,0.00,0.00,VWS V14.00,2015-06-30 07:56:00,
2015-06-30 03:01:00,66.6,63.6,29.81,WNW,287,0.0,1.0,90,0.00,,,0.00,0.00,VWS V14.00,2015-06-30 08:01:00,
2015-06-30 03:06:00,66.6,63.6,29.81,WNW,287,0.0,0.0,90,0.00,,,0.00,0.00,VWS V14.00,2015-06-30 08:06:00,
2015-06-30 03:11:00,66.5,63.5,29.81,WNW,293,0.0,2.0,90,0.00,,,0.00,0.00,VWS V14.00,2015-06-30 08:11:00,
2015-06-30 03:16:00,66.5,63.8,29.81,WNW,293,0.0,1.0,91,0.00,,,0.00,0.00,VWS V14.00,2015-06-30 08:16:00,
2015-06-30 03:21:00,66.4,63.7,29.81,WNW,293,0.0,0.0,91,0.00,,,0.00,0.00,VWS V14.00,2015-06-30 08:21:00,
2015-06-30 03:26:00,66.3,63.6,29.81,WNW,295,0.0,1.0,91,0.00,,,0.00,0.00,VWS V14.00,2015-06-30 08:26:00,
2015-06-30 03:31:00,66.2,63.5,29.81,WNW,294,0.0,1.0,91,0.00,,,0.00,0.00,VWS V14.00,2015-06-30 08:31:00,
2015-06-30 03:36:00,66.3,63.6,29.81,WNW,294,0.0,0.0,91,0.00,,,0.00,0.00,VWS V14.00,2015-06-30 08:36:00,
2015-06-30 03:41:00,66.3,63.6,29.82,WNW,288,0.0,1.0,91,0.00,,,0.00,0.00,VWS V14.00,2015-06-30 08:41:00,
2015-06-30 03:46:00,66.3,63.6,29.81,WNW,290,0.0,0.0,91,0.00,,,0.00,0.00,VWS V14.00,2015-06-30 08:46:00,
2015-06-30 03:51:00,66.2,63.5,29.81,NW,305,0.0,1.0,91,0.00,,,0.00,0.00,VWS V14.00,2015-06-30 08:51:00,
2015-06-30 03:56:00,66.2,63.5,29.81,WNW,300,0.0,3.0,91,0.00,,,0.00,0.00,VWS V14.00,2015-06-30 08:56:00,
2015-06-30 04:01:00,66.2,63.2,29.81,NW,307,0.0,3.0,90,0.00,,,0.00,0.00,VWS V14.00,2015-06-30 09:01:00,
2015-06-30 04:06:00,66.2,63.2,29.81,NW,311,0.0,1.0,90,0.00,,,0.00,0.00,VWS V14.00,2015-06-30 09:06:00,
2015-06-30 04:11:00,66.1,63.1,29.81,West,277,0.0,4.0,90,0.00,,,0.00,0.00,VWS V14.00,2015-06-30 09:11:00,
2015-06-30 04:16:00,66.1,63.1,29.81,WNW,291,0.0,1.0,90,0.00,,,0.00,0.00,VWS V14.00,2015-06-30 09:16:00,
2015-06-30 04:21:00,66.1,63.1,29.81,NW,315,0.0,2.0,90,0.00,,,0.00,0.00,VWS V14.00,2015-06-30 09:21:00,
2015-06-30 04:26:00,66.0,63.0,29.81,NW,315,0.0,1.0,90,0.00,,,0.00,0.00,VWS V14.00,2015-06-30 09:26:00,
2015-06-30 04:31:00,65.9,62.9,29.81,WNW,299,0.0,3.0,90,0.00,,,0.00,0.00,VWS V14.00,2015-06-30 09:31:00,
2015-06-30 04:36:00,65.9,63.2,29.81,NW,305,0.0,2.0,91,0.00,,,0.00,0.00,VWS V14.00,2015-06-30 09:36:00,
2015-06-30 04:41:00,65.8,63.1,29.81,NW,313,0.0,4.0,91,0.00,,,0.00,0.00,VWS V14.00,2015-06-30 09:41:00,
2015-06-30 04:46:00,65.7,63.0,29.81,NW,308,0.0,3.0,91,0.00,,,0.00,0.00,VWS V14.00,2015-06-30 09:46:00,
2015-06-30 04:51:00,65.6,62.9,29.81,NW,308,0.0,0.0,91,0.00,,,0.00,0.00,VWS V14.00,2015-06-30 09:51:00,
2015-06-30 04:56:00,65.4,62.7,29.81,NW,308,0.0,0.0,91,0.00,,,0.00,0.00,VWS V14.00,2015-06-30 09:56:00,
2015-06-30 05:01:00,65.3,62.6,29.81,NW,308,0.0,1.0,91,0.00,,,0.00,0.00,VWS V14.00,2015-06-30 10:01:00,
2015-06-30 05:06:00,65.2,62.8,29.81,NW,308,0.0,0.0,92,0.00,,,0.00,0.00,VWS V14.00,2015-06-30 10:06:00,
2015-06-30 05:11:00,65.1,62.7,29.81,NW,306,0.0,1.0,92,0.00,,,0.00,0.00,VWS V14.00,2015-06-30 10:11:00,
2015-06-30 05:16:00,65.0,62.6,29.82,NW,306,0.0,0.0,92,0.00,,,0.00,0.00,VWS V14.00,2015-06-30 10:16:00,
2015-06-30 05:21:00,64.9,62.5,29.82,NW,306,0.0,1.0,92,0.00,,,0.00,0.00,VWS V14.00,2015-06-30 10:21:00,
2015-06-30 05:26:00,64.7,62.3,29.82,NW,306,0.0,1.0,92,0.00,,,0.00,0.00,VWS V14.00,2015-06-30 10:26:00,
2015-06-30 05:31:00,64.6,62.2,29.82,NW,305,0.0,1.0,92,0.00,,,0.00,0.00,VWS V14.00,2015-06-30 10:31:00,
2015-06-30 05:36:00,64.5,62.4,29.82,NW,306,0.0,0.0,93,0.00,,,0.00,0.00,VWS V14.00,2015-06-30 10:36:00,
2015-06-30 05:41:00,64.4,62.3,29.83,NW,306,0.0,0.0,93,0.00,,,0.00,5.00,VWS V14.00,2015-06-30 10:41:00,
2015-06-30 05:46:00,64.4,62.3,29.82,NW,305,0.0,0.0,93,0.00,,,0.00,9.00,VWS V14.00,2015-06-30 10:46:00,
2015-06-30 05:51:00,64.3,62.2,29.83,NW,306,0.0,0.0,93,0.00,,,0.00,12.00,VWS V14.00,2015-06-30 10:51:00,
2015-06-30 05:56:00,64.4,62.3,29.83,NW,306,0.0,0.0,93,0.00,,,0.00,19.00,VWS V14.00,2015-06-30 10:56:00,
2015-06-30 06:01:00,64.4,62.3,29.83,NW,306,0.0,0.0,93,0.00,,,0.00,28.00,VWS V14.00,2015-06-30 11:01:00,
2015-06-30 06:06:00,64.4,62.3,29.83,NW,305,0.0,2.0,93,0.00,,,0.00,26.00,VWS V14.00,2015-06-30 11:06:00,
2015-06-30 06:11:00,64.4,62.3,29.83,NW,317,0.0,2.0,93,0.00,,,0.00,32.00,VWS V14.00,2015-06-30 11:11:00,
2015-06-30 06:16:00,64.4,62.3,29.83,NW,317,0.0,3.0,93,0.00,,,0.00,42.00,VWS V14.00,2015-06-30 11:16:00,
2015-06-30 06:21:00,64.4,62.3,29.83,NW,316,0.0,1.0,93,0.00,,,0.00,39.00,VWS V14.00,2015-06-30 11:21:00,
2015-06-30 06:26:00,64.5,62.4,29.83,NW,315,0.0,0.0,93,0.00,,,0.00,46.00,VWS V14.00,2015-06-30 11:26:00,
2015-06-30 06:31:00,64.6,62.8,29.84,NW,314,0.0,0.0,94,0.00,,,0.00,53.00,VWS V14.00,2015-06-30 11:31:00,
2015-06-30 06:36:00,64.7,62.9,29.84,NW,312,0.0,0.0,94,0.00,,,0.00,56.00,VWS V14.00,2015-06-30 11:36:00,
2015-06-30 06:41:00,64.7,62.6,29.84,NW,312,0.0,0.0,93,0.00,,,0.00,42.00,VWS V14.00,2015-06-30 11:41:00,
2015-06-30 06:46:00,64.8,62.7,29.84,WNW,296,0.0,0.0,93,0.00,,,0.00,39.00,VWS V14.00,2015-06-30 11:46:00,
2015-06-30 06:51:00,64.7,62.6,29.85,WNW,296,0.0,0.0,93,0.00,,,0.00,42.00,VWS V14.00,2015-06-30 11:51:00,
2015-06-30 06:56:00,64.7,62.6,29.85,WNW,294,0.0,0.0,93,0.00,,,0.00,47.00,VWS V14.00,2015-06-30 11:56:00,
2015-06-30 07:01:00,64.7,62.6,29.85,WNW,295,0.0,0.0,93,0.00,,,0.00,58.00,VWS V14.00,2015-06-30 12:01:00,
2015-06-30 07:06:00,64.7,62.6,29.85,WNW,297,0.0,0.0,93,0.00,,,0.00,62.00,VWS V14.00,2015-06-30 12:06:00,
2015-06-30 07:11:00,64.8,62.7,29.85,WNW,300,0.0,0.0,93,0.00,,,0.00,65.00,VWS V14.00,2015-06-30 12:11:00,
2015-06-30 07:16:00,64.9,62.8,29.86,WNW,302,0.0,0.0,93,0.00,,,0.00,53.00,VWS V14.00,2015-06-30 12:16:00,
2015-06-30 07:21:00,64.9,62.8,29.86,WNW,302,0.0,0.0,93,0.00,,,0.00,54.00,VWS V14.00,2015-06-30 12:21:00,
2015-06-30 07:26:00,64.9,62.8,29.86,WNW,299,0.0,0.0,93,0.00,,,0.00,62.00,VWS V14.00,2015-06-30 12:26:00,
2015-06-30 07:31:00,64.9,62.8,29.86,WNW,300,0.0,0.0,93,0.00,,,0.00,72.00,VWS V14.00,2015-06-30 12:31:00,
2015-06-30 07:36:00,64.9,62.8,29.86,WNW,299,0.0,0.0,93,0.00,,,0.00,65.00,VWS V14.00,2015-06-30 12:36:00,
2015-06-30 07:41:00,64.9,62.8,29.86,WNW,300,0.0,0.0,93,0.00,,,0.00,69.00,VWS V14.00,2015-06-30 12:41:00,
2015-06-30 07:46:00,65.0,62.9,29.86,NW,308,0.0,0.0,93,0.00,,,0.00,88.00,VWS V14.00,2015-06-30 12:46:00,
2015-06-30 07:51:00,65.1,63.0,29.86,NW,317,0.0,0.0,93,0.00,,,0.00,100.00,VWS V14.00,2015-06-30 12:51:00,
2015-06-30 07:56:00,65.3,63.2,29.87,WNW,301,0.0,0.0,93,0.00,,,0.00,100.00,VWS V14.00,2015-06-30 12:56:00,
2015-06-30 08:01:00,65.4,63.3,29.87,WNW,284,0.0,0.0,93,0.00,,,0.00,105.00,VWS V14.00,2015-06-30 13:01:00,
2015-06-30 08:06:00,65.4,63.3,29.87,West,273,0.0,0.0,93,0.00,,,0.00,114.00,VWS V14.00,2015-06-30 13:06:00,
2015-06-30 08:11:00,65.5,63.4,29.87,WNW,300,0.0,0.0,93,0.00,,,0.00,128.00,VWS V14.00,2015-06-30 13:11:00,
2015-06-30 08:16:00,65.6,63.5,29.87,NW,313,0.0,0.0,93,0.00,,,0.00,139.00,VWS V14.00,2015-06-30 13:16:00,
2015-06-30 08:21:00,65.8,63.7,29.87,NW,315,0.0,0.0,93,0.00,,,0.00,149.00,VWS V14.00,2015-06-30 13:21:00,
2015-06-30 08:26:00,66.1,64.0,29.87,NW,317,0.0,0.0,93,0.00,,,0.00,160.00,VWS V14.00,2015-06-30 13:26:00,
2015-06-30 08:31:00,66.3,64.2,29.87,NW,324,0.0,1.0,93,0.00,,,0.00,171.00,VWS V14.00,2015-06-30 13:31:00,
2015-06-30 08:36:00,66.5,64.4,29.87,West,280,1.0,4.0,93,0.00,,,0.00,179.00,VWS V14.00,2015-06-30 13:36:00,
2015-06-30 08:41:00,66.6,64.2,29.88,NW,316,0.0,0.0,92,0.00,,,0.00,188.00,VWS V14.00,2015-06-30 13:41:00,
2015-06-30 08:46:00,66.9,64.5,29.87,NW,321,4.0,4.0,92,0.00,,,0.00,202.00,VWS V14.00,2015-06-30 13:46:00,
2015-06-30 08:51:00,67.2,64.8,29.87,NW,319,0.0,0.0,92,0.00,,,0.00,213.00,VWS V14.00,2015-06-30 13:51:00,
2015-06-30 08:56:00,67.4,64.7,29.87,NW,322,3.0,4.0,91,0.00,,,0.00,223.00,VWS V14.00,2015-06-30 13:56:00,
2015-06-30 09:01:00,67.7,65.0,29.87,NW,323,0.0,0.0,91,0.00,,,0.00,237.00,VWS V14.00,2015-06-30 14:01:00,
2015-06-30 09:06:00,68.1,65.4,29.88,NW,325,3.0,5.0,91,0.00,,,0.00,253.00,VWS V14.00,2015-06-30 14:06:00,
2015-06-30 09:11:00,68.4,65.4,29.87,NNW,331,0.0,4.0,90,0.00,,,0.00,265.00,VWS V14.00,2015-06-30 14:11:00,
2015-06-30 09:16:00,68.7,66.0,29.87,NW,318,2.0,2.0,91,0.00,,,0.00,278.00,VWS V14.00,2015-06-30 14:16:00,
2015-06-30 09:21:00,69.0,65.9,29.87,WNW,286,0.0,0.0,90,0.00,,,0.00,290.00,VWS V14.00,2015-06-30 14:21:00,
2015-06-30 09:26:00,69.2,66.2,29.87,NW,315,0.0,0.0,90,0.00,,,0.00,297.00,VWS V14.00,2015-06-30 14:26:00,
2015-06-30 09:31:00,69.7,66.6,29.87,NNW,331,0.0,0.0,90,0.00,,,0.00,306.00,VWS V14.00,2015-06-30 14:31:00,
2015-06-30 09:36:00,70.1,66.7,29.87,NNW,332,0.0,1.0,89,0.00,,,0.00,311.00,VWS V14.00,2015-06-30 14:36:00,
2015-06-30 09:41:00,70.4,66.7,29.87,NW,319,0.0,2.0,88,0.00,,,0.00,313.00,VWS V14.00,2015-06-30 14:41:00,
2015-06-30 09:46:00,70.6,66.9,29.87,NNW,332,0.0,0.0,88,0.00,,,0.00,327.00,VWS V14.00,2015-06-30 14:46:00,
2015-06-30 09:51:00,71.0,67.3,29.87,NNW,332,0.0,0.0,88,0.00,,,0.00,330.00,VWS V14.00,2015-06-30 14:51:00,
2015-06-30 09:56:00,71.4,67.3,29.87,NW,325,0.0,0.0,87,0.00,,,0.00,338.00,VWS V14.00,2015-06-30 14:56:00,
2015-06-30 10:01:00,71.8,67.7,29.87,NNW,329,0.0,2.0,87,0.00,,,0.00,362.00,VWS V14.00,2015-06-30 15:01:00,
2015-06-30 10:06:00,72.2,67.8,29.86,NNW,331,0.0,1.0,86,0.00,,,0.00,353.00,VWS V14.00,2015-06-30 15:06:00,
2015-06-30 10:11:00,72.6,68.2,29.86,NNW,339,0.0,0.0,86,0.00,,,0.00,374.00,VWS V14.00,2015-06-30 15:11:00,
2015-06-30 10:16:00,72.9,68.1,29.86,NW,321,0.0,0.0,85,0.00,,,0.00,373.00,VWS V14.00,2015-06-30 15:16:00,
2015-06-30 10:21:00,73.0,67.9,29.86,North,355,1.0,1.0,84,0.00,,,0.00,401.00,VWS V14.00,2015-06-30 15:21:00,
2015-06-30 10:26:00,73.2,67.7,29.86,North,351,0.0,0.0,83,0.00,,,0.00,424.00,VWS V14.00,2015-06-30 15:26:00,
2015-06-30 10:31:00,73.5,68.0,29.86,NNW,346,0.0,0.0,83,0.00,,,0.00,415.00,VWS V14.00,2015-06-30 15:31:00,
2015-06-30 10:36:00,73.8,68.3,29.86,NNW,347,0.0,0.0,83,0.00,,,0.00,403.00,VWS V14.00,2015-06-30 15:36:00,
2015-06-30 10:41:00,74.2,68.4,29.85,NNE,17,0.0,0.0,82,0.00,,,0.00,410.00,VWS V14.00,2015-06-30 15:41:00,
2015-06-30 10:46:00,74.6,68.8,29.85,NNW,331,0.0,0.0,82,0.00,,,0.00,399.00,VWS V14.00,2015-06-30 15:46:00,
2015-06-30 10:51:00,74.9,68.7,29.85,NNW,331,0.0,0.0,81,0.00,,,0.00,406.00,VWS V14.00,2015-06-30 15:51:00,
2015-06-30 10:56:00,75.2,69.0,29.85,NNW,330,0.0,0.0,81,0.00,,,0.00,380.00,VWS V14.00,2015-06-30 15:56:00,
2015-06-30 11:02:00,75.2,67.9,29.85,NNW,330,0.0,0.0,78,0.00,,,0.00,392.00,VWS V14.00,2015-06-30 16:02:00,
2015-06-30 11:07:00,75.0,68.4,29.85,NNW,331,0.0,0.0,80,0.00,,,0.00,394.00,VWS V14.00,2015-06-30 16:07:00,
2015-06-30 11:12:00,75.3,68.3,29.85,NNW,331,0.0,0.0,79,0.00,,,0.00,411.00,VWS V14.00,2015-06-30 16:12:00,
2015-06-30 11:17:00,75.6,67.9,29.85,NNW,330,0.0,0.0,77,0.00,,,0.00,441.00,VWS V14.00,2015-06-30 16:17:00,
2015-06-30 11:22:00,75.9,69.3,29.85,NNW,331,0.0,1.0,80,0.00,,,0.00,413.00,VWS V14.00,2015-06-30 16:22:00,
2015-06-30 11:27:00,76.1,68.8,29.85,NNW,331,0.0,0.0,78,0.00,,,0.00,439.00,VWS V14.00,2015-06-30 16:27:00,
2015-06-30 11:32:00,76.3,69.3,29.85,NNW,331,0.0,0.0,79,0.00,,,0.00,454.00,VWS V14.00,2015-06-30 16:32:00,
2015-06-30 11:37:00,76.6,68.5,29.85,NNW,331,0.0,0.0,76,0.00,,,0.00,425.00,VWS V14.00,2015-06-30 16:37:00,
2015-06-30 11:42:00,76.7,68.6,29.85,NNW,331,0.0,0.0,76,0.00,,,0.00,404.00,VWS V14.00,2015-06-30 16:42:00,
2015-06-30 11:47:00,76.7,67.8,29.85,NNW,331,0.0,0.0,74,0.00,,,0.00,468.00,VWS V14.00,2015-06-30 16:47:00,
2015-06-30 11:52:00,76.9,68.0,29.85,NNW,330,0.0,0.0,74,0.00,,,0.00,471.00,VWS V14.00,2015-06-30 16:52:00,
2015-06-30 11:57:00,77.2,67.9,29.85,NNW,329,0.0,0.0,73,0.00,,,0.00,464.00,VWS V14.00,2015-06-30 16:57:00,
2015-06-30 12:02:00,77.4,68.1,29.86,WNW,298,0.0,0.0,73,0.00,,,0.00,482.00,VWS V14.00,2015-06-30 17:02:00,